Terug naar catalogus

FENGYUN 1C DEB

ActiefSSO
NORAD 30295·DEBRIS·🇨🇳 China

Gelanceerd May 10, 1999 vanaf Taiyuan Satellite Launch Center

Loading…

Volgende Passages (komende 24 uur)

TLE

VersSource: Space-Track

Epoch: Sep 13, 2026, 07:15 UTC

1 30295U 99025ZG  26256.30226917  .00000204  00000-0  10037-3 0  9995
2 30295  98.4904 275.1883 0093128   0.3568  62.3903 14.25245998 20806

Volg FENGYUN 1C DEB in realtime met AllMySat

Download on the App Store